Home   Weather   Adama   Past weeks

Flag for Ethiopia Past Weather in Adama, Ethiopia — Yesterday and Last 2 Weeks

Now
59 °F

Passing clouds.


Feels Like: 59 °F
Forecast: 61 / 84 °F
Wind: 5 mph from Northeast

Location: Addis Ababa Airport

Current Time: Apr 30, 2017 at 4:27:45 am

Latest Report: Apr 30, 2017 at 3:00 am


Visibility: N/A

Pressure: 30.30 "Hg (25.00 "Hg at 1621m altitude)

Humidity: 68%

Dew Point: 48 °F

Location of AdamaLocation

Past Weather in Adama — Graph

°F

Adama Temperature Yesterday

Maximum temperature yesterday: 64 °F (at 5:00 pm)
Minimum temperature yesterday: 57 °F (at 4:00 am)
Average temperature yesterday: 60 °F

High & Low Weather Summary for the Past Weeks

 TemperatureHumidityPressure
High81 °F (Apr 15, 2:00 pm)94% (Apr 28, 10:00 pm)30.39 "Hg (Apr 28, 10:00 pm)
Low52 °F (Apr 24, 6:00 am)14% (Apr 24, 10:00 am)30.18 "Hg (Apr 15, 4:00 pm)
Average68 °F48%30.29 "Hg
* Reported Apr 15 4:00 am — Apr 30 3:00 am, Adama, Weather by CustomWeather, © 2017

Note: Actual official high and low records may vary slightly from our data, if they occured in-between our weather recording intervals... More about our weather records

Advertising

Adama Weather History for the Previous 24 Hours

Scroll right to see more
 ConditionsComfort  
Time TempWeatherWind HumidityBarometerVisibility
3:00 am
Sun, Apr 30
59 °FPassing clouds.5 mph68%30.30 "HgN/A
2:00 am59 °FPartly cloudy.2 mph72%30.33 "HgN/A
1:00 am57 °FPartly cloudy.3 mph94%30.33 "HgN/A
11:00 pm
Sat, Apr 29
61 °FPartly cloudy.2 mph83%30.36 "HgN/A
10:00 pm61 °FPartly cloudy.2 mph83%30.36 "HgN/A
9:00 pm61 °FPassing clouds.5 mph83%30.33 "HgN/A
8:00 pm61 °FPassing clouds.5 mph77%30.30 "HgN/A
7:00 pm63 °FPassing clouds.9 mph68%30.30 "HgN/A
6:00 pm64 °FPassing clouds.7 mph64%30.27 "HgN/A
5:00 pm64 °FPartly sunny.5 mph60%30.27 "HgN/A
3:00 pm63 °FRain. Cloudy.5 mph73%30.30 "Hg6 mi
2:00 pm63 °FMild.5 mph77%30.33 "HgN/A
11:00 am57 °FFog.12 mph82%30.39 "Hg6 mi
10:00 am57 °FFog.5 mph94%30.39 "Hg6 mi
6:00 am57 °FPassing clouds.5 mph94%30.33 "Hg5 mi
5:00 am57 °FMostly cloudy.6 mph94%30.33 "Hg5 mi
4:00 am57 °FLight rain. Mostly cloudy.N/A94%30.30 "Hg5 mi
Weather by CustomWeather, © 2017

See weather overviewHow to use our weather pages